Theta_e
307 307 306 306 307 306 306 309 309 309 309 309 310 311 310 311 311 310 311 309 308 312 313 313 314 319 333 341 342 343 341 343 347 346 347 347 346 345 344 344 344 342 340 336 335 335 335 338 342 341 340 339 338 338 339 339 339 339 339 336 332 332 334 336 337 338 338 338 338 337 336 336 336 335 334 334 335 335 335 335 336 335 336 336 335 335
307 308 308 306 306 305 306 309 310 308 308 309 310 310 310 310 311 310 311 310 309 311 313 311 313 323 337 341 341 342 340 342 346 346 346 346 345 345 344 343 341 341 340 337 336 335 333 334 339 340 339 338 337 338 339 339 339 339 339 338 335 334 335 336 338 338 338 338 337 337 336 336 335 334 335 336 336 335 335 336 335 335 335 335 334 334
308 309 308 307 306 305 306 309 310 309 309 309 309 310 310 310 310 310 310 310 309 311 313 311 311 320 332 337 340 341 342 343 345 345 346 346 345 344 343 342 340 341 340 336 336 337 335 334 338 340 338 338 337 338 339 339 339 339 339 339 338 337 336 338 338 338 338 337 336 336 335 335 334 335 335 336 335 335 335 335 334 334 334 334 334 333
309 310 308 307 306 306 306 307 309 310 309 310 309 310 310 309 310 311 311 310 310 311 312 312 312 314 319 324 333 339 342 345 343 343 344 344 344 344 342 341 340 339 335 333 335 337 336 336 338 339 338 337 337 338 339 339 339 339 339 340 340 339 338 339 339 338 337 336 336 335 335 335 335 335 335 334 334 334 334 333 333 333 333 333 334 333
309 310 308 306 306 306 306 307 308 309 309 310 309 309 310 308 309 310 310 311 311 311 311 312 312 313 313 318 328 335 339 342 339 336 339 341 342 343 340 339 339 339 335 334 336 336 335 336 337 338 337 337 337 338 339 339 339 339 340 340 340 339 339 339 338 337 337 335 335 334 334 335 335 335 335 335 334 333 333 333 333 333 334 334 334 334
309 309 308 306 307 307 306 306 307 308 309 309 308 309 309 309 310 309 310 311 312 311 311 311 311 313 314 315 322 331 337 339 334 332 336 339 341 341 339 337 338 338 337 336 336 335 335 334 336 337 336 336 337 338 340 339 339 339 340 340 339 338 338 338 337 336 335 335 334 334 335 335 335 334 334 334 333 332 332 333 333 334 333 334 333 333
308 308 308 308 307 307 307 307 307 308 309 309 308 308 308 309 309 309 310 310 311 312 311 310 311 313 313 312 314 323 335 340 333 332 337 339 340 340 338 337 336 336 337 336 334 333 335 335 335 336 336 336 337 339 340 340 340 340 340 338 337 337 337 336 336 335 335 334 334 334 334 334 334 334 333 332 331 331 332 332 333 333 333 333 333 333
308 307 308 309 308 307 308 307 307 308 309 309 308 308 308 309 309 310 310 310 311 312 311 310 311 312 312 315 317 318 329 339 335 333 337 338 339 339 338 336 336 337 339 337 333 332 335 336 335 335 336 337 338 339 340 340 340 340 339 337 336 336 336 335 335 335 334 334 334 333 333 332 332 333 332 331 332 332 332 332 332 333 333 333 332 332
308 308 308 309 310 309 309 308 306 307 309 308 307 308 309 309 309 310 310 311 312 311 311 311 311 312 310 316 323 319 322 336 338 335 335 337 338 338 337 336 336 337 338 337 334 333 336 337 336 335 336 337 338 339 339 339 339 339 339 337 336 336 335 335 335 335 334 333 333 332 332 332 331 332 332 331 332 332 332 332 332 332 332 331 331 331
307 309 309 309 310 309 309 308 306 308 309 308 306 308 309 309 310 311 310 310 312 311 312 312 312 312 311 316 326 325 322 331 338 337 335 336 338 337 337 336 337 337 337 337 335 335 336 336 335 335 336 337 338 338 338 338 338 338 337 337 336 335 335 335 334 334 333 332 333 333 332 331 330 331 332 331 331 331 331 331 331 331 331 331 331 330
306 308 309 309 310 310 309 307 307 309 308 307 307 308 308 309 310 311 311 311 311 312 312 312 312 312 311 317 327 328 325 328 335 337 336 336 336 336 337 336 337 337 336 336 336 336 336 335 335 336 336 337 337 337 337 337 337 336 336 335 335 334 334 334 333 333 333 332 332 332 332 331 331 331 331 331 331 330 330 330 329 329 329 329 329 328
306 308 309 309 309 309 308 307 307 308 307 307 309 309 309 310 310 311 311 310 311 312 311 310 311 311 311 317 326 328 327 328 333 337 337 336 336 336 337 337 337 336 336 337 336 336 335 334 335 335 335 335 335 335 336 335 335 335 335 334 334 333 333 333 332 332 332 331 331 331 331 331 331 330 330 329 328 328 327 327 327 327 327 327 326 325
306 308 307 308 309 309 308 308 307 306 307 309 309 310 310 310 310 311 311 310 311 312 311 309 310 312 312 316 323 326 330 331 333 337 337 336 336 336 337 337 336 336 336 337 337 336 335 334 334 334 334 333 333 333 334 334 334 334 333 333 333 333 332 331 331 331 330 330 330 330 330 329 329 328 327 326 326 327 327 327 327 326 325 325 323 322
306 306 305 308 309 309 310 310 308 307 308 309 310 310 310 310 311 311 311 311 312 312 311 310 311 313 314 319 324 327 330 330 334 338 338 337 337 336 337 337 336 336 337 338 337 336 334 333 334 333 332 332 332 332 333 332 333 333 332 332 332 331 330 329 329 329 329 329 329 329 328 328 327 326 326 327 328 328 327 326 325 324 322 321 320 319
307 306 306 308 309 309 310 310 309 308 308 309 310 310 311 311 311 311 311 311 312 312 312 311 312 315 319 324 326 328 329 331 335 339 339 338 337 336 336 336 336 337 337 337 337 336 334 334 334 333 332 333 333 332 333 332 332 332 331 330 330 330 330 329 329 329 329 329 329 328 328 327 327 327 328 328 328 326 324 323 322 321 320 319 319 318
307 307 306 307 308 309 310 309 308 309 309 309 309 309 311 312 312 312 311 312 313 312 313 313 315 320 324 326 327 328 330 331 333 337 338 336 336 336 336 336 336 337 337 337 336 335 335 334 333 332 333 334 333 332 333 332 331 330 330 329 329 330 330 330 330 330 330 329 329 328 328 327 327 327 328 326 324 323 321 320 320 319 319 318 318 318
308 307 306 306 307 308 310 309 308 310 310 309 308 309 310 310 313 314 311 311 312 311 314 318 320 322 323 326 328 328 330 331 331 334 336 335 335 336 336 336 336 336 336 335 335 336 334 334 333 332 332 333 332 332 332 331 330 330 329 329 329 329 329 329 329 329 328 328 328 328 326 325 325 325 324 323 321 320 320 319 319 318 318 317 317 317
308 308 306 306 306 308 309 309 309 310 310 309 309 310 310 309 312 314 313 312 311 311 315 320 323 323 320 324 329 329 330 331 329 331 334 334 334 334 333 334 334 334 334 334 336 335 334 334 333 332 332 331 330 330 330 329 330 331 330 329 329 328 328 328 328 327 327 327 327 325 322 321 321 320 320 320 319 319 318 318 318 317 317 317 316 316
308 307 307 307 307 307 307 309 310 309 308 309 310 310 311 311 311 312 313 314 313 312 314 320 325 324 319 325 331 330 330 332 330 329 331 332 332 332 331 331 331 333 334 334 333 332 332 333 332 331 333 331 329 330 330 330 330 330 329 328 328 328 327 327 326 326 326 326 325 322 319 319 319 318 318 318 317 317 317 317 316 316 316 316 316 316
308 309 307 307 307 307 308 309 310 309 307 309 310 310 310 311 312 312 313 313 314 314 315 320 324 324 322 325 331 330 330 331 331 330 330 331 331 330 329 329 328 330 330 329 328 328 330 331 330 331 332 331 330 330 330 330 329 328 327 328 328 327 326 325 325 324 323 322 321 319 318 318 317 317 317 316 316 316 316 316 315 315 315 315 315 315
309 309 308 307 306 307 308 309 310 310 309 309 310 310 310 311 311 311 312 312 313 316 316 317 319 322 323 323 327 330 330 330 331 330 329 330 329 328 328 329 327 326 326 326 327 329 330 330 330 331 331 330 330 329 329 327 327 326 325 326 325 325 324 324 323 322 320 319 318 318 317 317 317 316 316 315 316 315 315 315 315 315 314 314 314 314
309 309 309 309 307 307 308 309 309 310 310 310 311 310 311 311 311 311 312 312 313 317 319 318 316 320 323 321 324 329 329 329 330 330 328 328 329 328 328 327 325 325 325 326 328 329 329 329 329 329 329 329 329 328 326 324 323 323 323 323 323 322 322 321 320 319 318 318 317 316 316 315 315 315 315 315 315 315 314 314 314 314 314 314 314 314
311 311 310 309 308 308 309 308 309 310 310 310 311 310 310 312 312 311 311 313 314 317 319 318 316 319 324 323 324 327 328 329 329 329 328 328 328 328 326 324 324 325 325 327 327 327 327 328 329 328 327 327 326 325 324 323 322 322 322 321 321 320 320 319 318 318 318 317 316 315 315 314 315 315 315 315 314 314 314 313 313 313 313 313 313 313
313 311 309 309 309 308 308 307 307 309 309 309 310 310 310 311 311 312 313 314 314 316 318 317 314 319 325 324 325 328 328 328 328 328 327 326 326 325 324 323 323 324 324 325 326 326 327 328 328 327 326 325 324 323 322 321 321 320 320 320 320 319 319 318 317 317 316 315 314 314 314 315 315 314 314 313 313 313 313 313 313 313 313 313 313 313
310 309 309 310 310 309 309 309 308 308 308 310 311 310 309 311 312 313 314 313 313 315 317 315 314 322 327 325 326 327 327 326 327 326 325 325 324 323 323 323 322 323 323 324 324 324 324 325 325 325 324 323 322 321 320 320 319 319 319 319 319 319 318 317 316 316 314 313 313 314 315 314 314 313 313 313 313 313 312 313 313 313 313 313 313 313
310 311 310 309 310 310 310 311 310 309 308 310 311 309 309 311 312 313 314 312 312 316 317 313 316 325 328 326 327 326 326 326 325 324 324 324 323 323 322 322 322 322 323 322 322 322 322 322 322 322 322 321 320 319 319 318 318 318 318 318 318 318 316 316 315 314 312 313 314 314 314 313 313 312 313 312 312 312 312 312 312 312 312 312 312 312
312 313 310 310 312 311 310 312 312 310 309 309 310 310 309 310 313 314 314 312 312 316 318 317 322 329 330 328 329 327 326 326 324 323 324 323 323 323 322 322 321 321 321 321 320 321 321 321 320 320 319 319 319 318 318 318 318 318 317 317 317 316 316 315 313 312 313 314 314 313 313 312 312 312 312 312 312 312 312 312 312 312 312 312 312 312
313 310 310 312 312 310 310 312 311 310 310 310 309 310 309 310 314 315 314 316 317 315 316 320 326 332 332 328 329 329 326 325 324 323 324 323 322 322 321 321 321 320 320 320 320 320 320 319 319 319 319 318 318 317 317 317 317 317 317 317 316 315 314 313 312 313 313 313 312 312 312 312 312 312 312 311 311 311 311 311 311 311 312 312 312 313
313 309 311 312 310 312 314 313 313 314 312 311 311 311 310 310 314 315 315 318 319 314 314 323 328 331 330 327 328 327 325 324 323 322 322 321 321 320 320 320 320 320 320 319 319 320 319 319 319 319 318 318 317 317 317 317 317 317 316 316 315 313 312 312 312 313 312 312 312 312 312 311 311 311 310 310 310 310 310 311 311 311 312 312 312 313
312 311 315 313 312 318 317 314 316 317 313 312 313 313 312 312 313 315 317 320 322 321 322 326 329 328 326 326 326 325 324 323 322 321 321 321 320 320 319 319 319 320 320 319 319 319 319 319 319 318 318 317 317 317 316 316 316 316 315 315 312 311 311 312 312 312 311 311 312 311 311 310 310 309 309 309 309 310 311 311 311 311 311 312 312 313
310 312 317 313 312 318 317 314 316 316 313 315 317 315 313 313 313 314 318 319 323 327 325 324 327 327 326 326 325 323 323 322 322 321 321 320 319 319 319 319 319 319 319 318 318 318 319 319 318 318 317 317 317 316 316 316 316 315 315 312 310 310 312 312 311 311 311 311 311 310 310 309 308 308 308 309 309 310 311 311 311 311 311 312 312 312
310 311 315 313 310 316 317 315 315 315 314 317 318 316 314 314 315 317 319 318 321 328 326 323 326 327 326 326 324 323 322 322 322 321 321 320 319 319 319 318 319 319 317 317 318 319 319 318 317 317 317 317 316 316 316 316 315 315 313 311 310 311 311 311 311 311 311 310 310 309 308 308 307 307 308 308 309 310 310 311 311 311 311 311 311 311
313 313 315 312 310 315 317 316 316 316 314 314 317 317 316 318 319 319 320 319 322 325 324 322 324 326 324 324 323 322 322 321 321 321 321 320 318 318 319 318 318 317 317 318 319 319 318 317 317 317 317 316 316 315 315 315 314 313 311 309 310 311 311 310 310 310 310 309 308 307 307 307 307 307 307 308 308 309 309 309 310 310 310 310 310 310
315 316 315 313 312 316 318 318 317 314 313 315 316 315 316 318 319 320 321 321 321 322 321 321 323 324 323 323 322 322 322 321 321 321 320 319 319 318 318 317 316 316 317 319 319 318 317 317 317 317 316 316 315 314 314 314 313 312 310 309 311 311 311 310 310 309 309 308 307 307 306 306 306 306 306 307 307 308 308 308 308 309 309 309 309 309
316 316 315 313 314 317 317 317 316 314 315 317 316 314 316 316 316 318 320 319 318 319 319 321 323 323 324 324 323 322 322 321 321 321 320 319 319 318 317 316 316 316 318 318 318 317 317 317 316 316 315 315 314 313 313 313 311 310 309 310 311 311 310 310 309 308 307 306 306 306 305 304 304 305 306 306 307 306 306 307 307 307 308 308 308 308
315 316 315 313 313 315 316 315 316 317 316 316 316 316 316 317 317 318 319 318 318 318 319 322 323 323 324 324 323 322 321 321 320 320 319 318 318 319 318 317 317 317 317 317 317 317 316 316 315 315 314 314 313 312 312 311 310 309 310 311 311 310 309 308 307 306 305 305 305 304 304 303 304 305 305 305 305 305 305 306 306 306 307 307 307 307
314 316 316 314 311 313 316 316 316 317 317 318 320 319 318 319 320 320 318 320 319 317 319 322 323 323 323 322 321 320 319 319 318 318 318 317 317 318 318 318 318 317 317 317 316 316 315 315 314 314 313 312 312 311 310 309 309 310 310 310 310 308 307 306 305 305 304 304 304 302 302 303 303 304 304 304 304 304 305 305 305 305 306 306 306 306
314 315 316 316 312 312 316 316 316 317 318 319 320 319 318 319 319 318 319 321 320 317 319 322 322 322 321 319 319 319 318 319 319 317 316 316 315 315 315 315 316 317 316 316 315 315 314 314 313 312 312 311 310 309 309 309 309 309 309 308 307 305 305 304 304 303 302 302 301 301 301 302 302 302 303 303 303 303 304 304 304 304 304 304 305 305
315 314 315 316 314 313 315 316 316 316 318 319 318 316 316 318 317 317 318 321 321 319 320 321 321 320 319 319 319 319 320 321 321 317 315 314 314 315 315 314 314 315 315 315 314 314 313 313 312 311 310 310 309 308 308 308 308 307 307 306 305 304 303 303 302 301 300 300 300 300 300 300 301 301 301 302 302 302 302 302 302 303 303 303 303 304
316 315 314 316 316 315 315 315 315 315 318 319 316 314 315 316 316 318 317 318 321 320 321 321 320 320 320 319 320 320 322 322 320 316 314 313 313 315 316 315 314 315 314 314 313 313 312 312 311 310 309 309 309 308 307 307 307 306 306 305 303 302 301 301 300 300 299 299 299 299 299 299 300 300 301 301 301 302 302 302 302 302 302 302 302 302
316 314 313 314 315 315 315 315 314 315 318 318 315 315 315 315 317 319 317 317 319 321 321 321 321 320 320 320 321 321 320 320 319 315 313 313 313 313 314 315 315 314 314 313 312 312 311 311 310 309 309 309 308 307 306 306 305 305 304 302 301 300 300 299 299 299 298 298 298 298 298 298 299 300 300 301 301 301 302 302 301 301 301 301 301 300
315 313 312 313 314 314 314 315 315 314 316 316 314 314 315 317 319 320 317 314 317 321 321 320 320 321 320 320 320 319 317 317 317 314 312 313 313 312 312 314 314 313 313 312 311 311 311 310 309 308 308 308 307 306 305 305 304 303 302 301 300 300 299 299 298 298 298 297 297 297 297 298 299 300 300 301 301 301 301 301 300 300 300 299 299 298
317 314 313 313 312 313 314 315 315 315 315 315 316 317 316 317 318 317 314 314 318 321 321 320 320 320 320 319 318 316 315 315 314 312 312 312 312 312 313 313 313 312 312 311 310 310 310 309 308 308 307 306 306 305 304 303 303 301 300 300 300 299 298 298 298 298 297 297 297 297 297 298 299 300 300 300 300 300 300 299 299 299 298 298 297 297
317 317 316 314 313 315 316 316 315 315 314 314 317 317 316 315 315 314 316 318 319 319 320 320 319 319 319 317 316 315 315 313 311 311 311 311 311 312 313 312 312 311 311 310 310 309 309 308 308 307 306 305 305 304 303 303 302 301 300 300 299 298 298 298 298 297 297 296 296 297 298 298 299 300 300 300 299 299 299 298 298 297 297 297 296 296
315 314 314 315 315 315 316 316 313 311 310 311 313 313 313 314 315 315 317 318 319 319 319 319 319 318 317 317 315 314 313 311 310 311 311 310 311 312 312 312 312 311 310 310 309 308 308 308 307 306 305 304 303 302 302 302 302 301 299 299 298 298 298 298 297 297 296 296 296 297 298 298 299 299 299 299 298 297 297 297 296 296 296 296 296 296
312 310 311 316 316 312 312 311 309 309 310 310 311 312 312 314 315 315 316 317 318 318 318 318 318 317 316 316 316 313 312 311 310 310 311 311 311 311 311 311 311 310 310 309 308 308 308 307 306 305 304 303 302 302 301 301 301 300 299 298 298 298 298 297 297 297 296 296 296 297 297 298 298 298 298 297 297 297 296 296 296 295 295 295 295 295
311 311 312 314 315 315 315 312 308 309 309 309 311 313 313 314 315 315 316 317 317 317 317 317 316 316 316 317 316 313 311 311 310 310 311 311 311 311 311 311 310 310 309 308 308 307 307 306 305 304 303 302 301 301 301 300 300 299 299 298 298 298 297 297 297 296 296 296 296 296 296 297 297 297 297 297 297 296 296 295 295 295 295 295 295 295
311 311 312 313 313 314 315 311 307 307 308 308 311 313 312 313 315 315 316 317 317 317 317 316 316 316 316 317 318 315 311 310 311 310 310 310 311 311 311 310 310 309 308 308 307 307 306 305 304 304 303 302 301 301 300 299 299 299 298 298 298 298 297 297 296 296 296 295 296 296 296 296 296 296 297 297 296 296 295 295 295 295 295 295 295 295
310 311 311 312 312 312 312 310 308 309 310 309 310 312 312 313 314 314 316 316 316 317 316 315 316 317 317 317 317 315 311 310 311 311 310 310 311 311 310 310 309 308 308 308 307 306 306 305 304 303 302 301 301 300 300 299 299 299 298 298 298 297 297 297 296 296 295 295 295 295 295 296 296 296 296 296 296 295 295 294 294 293 293 293 293 293
311 312 311 311 313 314 314 312 310 312 315 312 310 311 313 313 314 315 315 315 316 316 316 315 315 315 316 317 316 315 312 310 310 311 312 311 311 310 310 309 309 308 308 307 306 306 305 304 304 303 302 301 301 300 300 299 299 299 298 298 298 297 296 296 296 296 295 295 295 295 295 295 296 296 296 296 295 294 293 293 292 292 292 292 292 292
310 311 311 312 314 314 313 311 310 311 313 311 310 311 313 312 313 314 314 314 315 315 315 315 313 312 313 313 314 315 313 310 309 311 311 311 310 310 309 309 308 308 307 306 306 305 304 304 303 302 302 301 301 300 300 299 299 299 298 298 297 296 296 296 296 296 296 296 295 295 295 295 295 295 295 294 293 293 292 293 293 293 292 292 292 292
Wind_Speed
11 7 7 8 7 9 8 8 6 4 7 9 6 6 4 4 5 2 2 1 1 4 5 5 6 7 10 12 14 15 13 13 15 14 15 17 17 18 19 15 10 10 11 10 4 2 4 9 11 12 12 12 11 13 17 18 19 19 18 19 20 20 18 17 15 13 12 11 10 10 10 9 9 7 6 5 4 4 4 3 3 3 4 5 5 6
10 9 7 7 8 11 10 8 7 5 5 7 6 6 4 4 4 2 1 3 2 4 1 3 4 6 11 14 15 15 12 12 17 17 18 21 20 19 19 13 8 9 13 16 14 9 7 6 10 12 12 12 11 12 16 19 20 20 19 19 19 18 17 16 14 12 11 10 10 11 10 9 8 6 5 4 4 4 4 4 5 5 6 6 6 6
8 8 7 9 8 11 9 7 9 7 5 5 4 5 5 3 1 1 1 3 2 3 1 4 5 5 7 10 13 15 14 16 22 21 19 22 22 21 17 12 10 9 10 12 13 13 12 8 8 12 12 11 11 13 16 19 20 21 20 19 18 17 16 15 14 13 11 11 11 10 9 8 7 6 6 5 5 4 4 4 5 5 6 6 5 6
6 6 9 9 9 12 9 8 10 7 4 3 3 5 4 2 2 3 2 3 3 1 1 3 4 2 3 4 7 13 17 18 17 13 11 14 18 19 15 11 11 9 8 7 6 8 10 9 8 11 11 11 11 13 16 19 21 21 21 19 17 17 16 15 14 14 12 11 10 9 8 8 7 5 5 4 4 3 4 4 4 3 3 4 4 5
4 7 13 10 11 14 11 10 12 9 6 3 3 4 4 3 2 1 1 2 0 1 2 2 2 2 3 6 7 9 14 12 7 5 9 12 15 16 12 9 11 13 15 15 10 7 5 8 9 10 10 10 11 14 17 19 20 21 20 18 17 17 16 16 15 14 12 10 10 10 8 7 7 6 4 3 2 3 3 3 2 2 2 3 4 5
3 8 16 13 11 14 12 10 12 11 7 4 5 5 5 4 1 1 2 2 2 3 1 0 5 4 2 6 9 8 11 8 8 9 15 14 14 16 12 10 12 16 20 22 18 14 11 9 8 8 9 11 12 15 17 18 19 20 19 18 16 16 15 15 14 13 12 10 9 9 7 6 5 5 4 3 2 2 2 2 2 2 3 4 5 6
3 7 13 13 12 13 11 9 11 12 8 5 6 7 6 4 2 1 1 0 3 3 1 1 6 4 2 5 8 9 13 12 10 12 16 15 16 15 13 13 15 17 20 22 20 19 19 14 9 8 9 11 14 16 17 18 18 18 17 16 15 14 14 13 13 12 11 10 9 7 5 4 3 3 3 2 2 2 1 1 2 2 3 4 5 7
6 10 10 12 14 11 11 9 8 10 8 4 6 10 8 6 5 3 1 1 1 2 1 2 2 3 3 5 4 7 13 12 11 13 15 16 18 17 16 15 17 20 24 26 25 23 21 17 11 9 10 12 15 17 17 17 17 17 16 14 13 13 13 12 11 10 9 8 7 5 3 3 2 2 2 1 0 1 1 1 2 3 4 5 6 7
6 11 10 12 13 9 8 8 8 11 7 4 7 10 9 7 7 5 3 3 2 2 5 3 3 4 4 2 2 5 12 13 13 14 14 16 20 20 19 17 19 24 25 26 28 25 20 16 12 10 11 13 15 16 17 17 16 16 15 13 12 12 11 10 9 8 6 5 4 3 2 2 2 2 2 1 0 1 2 3 4 5 6 7 8 10
3 12 14 12 10 7 6 8 12 13 5 5 9 8 6 5 4 3 3 3 0 3 8 5 6 6 4 3 3 5 9 12 13 13 13 16 21 21 20 20 22 23 20 19 21 20 18 16 13 12 14 15 15 16 15 15 15 14 13 12 11 10 9 8 7 6 6 5 4 3 3 3 2 2 1 1 2 4 5 7 8 9 10 12 13 15
2 10 13 9 6 7 9 10 13 12 8 10 10 8 6 3 2 1 0 1 2 6 6 6 8 6 5 3 5 5 7 11 13 12 13 14 18 20 19 21 22 19 18 18 16 16 17 16 15 16 17 17 17 16 14 14 14 13 12 11 10 10 9 8 6 6 6 5 4 4 3 2 2 2 3 4 5 7 9 11 12 13 14 15 16 16
4 8 7 4 7 9 9 8 8 8 12 12 8 7 7 3 2 2 1 2 6 7 2 4 7 8 7 3 4 7 6 8 14 15 15 17 20 22 20 20 19 18 19 19 18 19 19 18 18 19 20 19 18 17 16 15 15 13 12 11 10 10 9 7 5 5 5 4 4 4 4 4 4 4 5 7 9 11 13 14 15 15 15 15 15 15
5 5 2 3 10 13 11 8 5 5 9 10 8 9 8 5 5 5 5 5 6 4 2 1 5 6 7 2 1 5 2 1 7 12 16 20 23 24 22 20 18 19 20 20 22 24 22 21 23 23 21 19 17 17 17 16 14 13 12 10 8 8 7 5 4 4 3 3 3 4 4 5 6 7 8 10 12 14 15 15 15 14 13 13 14 14
5 1 3 5 7 12 13 10 8 5 8 10 10 11 10 7 7 7 7 5 3 2 1 1 3 4 4 1 0 3 0 1 3 9 17 22 23 23 22 20 19 22 23 24 27 26 22 24 25 23 21 19 17 17 16 15 14 12 11 9 7 6 5 4 3 3 3 3 5 6 8 9 10 11 11 12 13 14 14 14 13 13 13 13 13 14
8 3 7 8 4 9 12 8 8 8 8 8 6 7 7 6 5 6 7 5 3 3 2 3 3 3 2 2 1 0 3 2 2 9 16 18 19 20 19 20 22 24 24 27 29 27 24 26 25 23 21 20 18 16 15 14 12 10 8 6 5 4 4 3 3 3 4 6 8 10 12 12 12 12 12 13 13 13 12 12 12 12 13 13 13 13
8 3 4 4 3 10 10 4 8 11 9 5 2 4 6 5 3 2 1 2 2 2 2 3 2 1 1 1 2 3 5 5 5 11 17 16 18 20 19 21 23 24 26 28 30 28 28 28 26 23 23 21 18 16 14 12 9 7 5 4 3 3 2 3 4 6 8 10 12 14 13 12 11 11 11 11 11 11 11 11 11 11 12 12 13 14
7 4 2 3 3 8 11 9 10 11 8 3 4 7 4 3 3 2 1 2 1 3 3 3 2 1 1 2 3 5 6 7 7 11 17 18 20 22 21 23 23 22 23 27 30 31 31 31 27 25 23 21 18 16 14 10 7 7 7 6 5 3 3 5 8 10 11 12 14 14 11 9 9 9 9 9 9 10 10 10 10 11 12 13 14 15
5 5 2 6 7 7 9 13 12 8 6 6 7 7 4 3 1 1 2 2 3 6 3 2 3 3 4 3 5 6 8 9 9 10 15 18 20 20 21 25 27 26 26 28 32 33 33 32 28 24 22 20 18 16 14 11 10 10 9 6 3 3 7 9 10 11 12 14 15 11 7 6 6 6 7 7 8 8 8 9 10 11 12 14 14 15
4 5 3 7 11 7 5 9 10 5 2 3 7 8 4 3 4 2 2 3 4 5 3 2 3 3 5 4 6 9 11 13 12 11 13 17 18 19 20 23 28 33 32 30 31 33 33 32 27 23 22 20 17 18 17 16 14 12 9 5 4 8 11 11 11 12 12 13 11 7 5 5 5 5 6 6 6 7 8 9 10 11 12 13 13 14
2 4 3 5 6 7 6 7 10 8 1 0 6 7 3 2 4 4 2 2 4 4 2 3 3 2 4 6 8 12 14 16 16 14 12 15 18 19 20 20 24 27 23 20 27 33 34 31 27 24 24 23 21 20 19 17 14 11 8 5 6 9 11 11 11 11 9 8 6 5 5 5 6 6 6 6 7 7 8 9 10 11 12 12 13 14
1 2 3 4 2 5 7 6 8 11 7 6 8 9 5 1 1 3 2 1 1 3 2 2 3 1 2 2 6 10 12 14 17 15 11 12 17 19 20 21 22 21 20 24 29 32 32 31 30 28 26 24 21 20 17 14 11 8 5 4 6 9 9 8 7 6 4 3 3 4 5 6 6 6 6 6 7 7 8 9 10 11 11 12 13 13
2 2 3 4 4 6 5 3 6 11 12 10 8 8 7 5 3 5 5 2 1 1 2 1 2 1 2 1 4 4 7 12 15 14 12 15 20 21 20 23 24 24 27 31 33 33 34 34 32 29 26 23 20 17 14 12 9 6 4 3 5 6 6 5 4 3 2 2 3 4 5 6 6 6 6 7 7 8 9 9 10 11 11 12 13 13
2 2 3 3 4 4 3 3 7 12 12 8 8 8 7 6 7 8 6 4 3 1 1 0 1 1 2 2 3 3 7 12 15 16 17 19 21 21 21 24 28 30 31 34 36 36 36 34 30 26 24 21 18 15 12 9 7 5 4 3 4 4 4 3 2 1 2 3 4 5 6 6 6 6 7 8 8 9 9 9 10 11 12 12 13 15
3 2 3 3 3 2 1 2 2 8 9 8 9 8 7 7 6 4 2 4 4 4 3 1 2 1 2 3 1 6 10 13 15 18 21 21 20 21 24 27 30 32 33 36 37 37 36 33 30 27 23 20 17 15 12 10 8 6 5 5 5 4 3 1 0 2 3 4 5 5 5 5 6 6 7 8 8 9 9 10 11 12 13 14 14 15
4 2 4 6 5 5 5 4 4 7 8 8 8 7 7 6 5 2 2 3 5 6 7 5 4 1 2 1 5 10 12 13 14 17 20 21 21 22 24 26 28 32 36 37 36 35 35 34 31 27 24 20 17 15 13 11 9 8 7 7 6 4 2 1 2 3 4 4 4 4 4 5 6 7 7 8 9 10 10 11 12 12 13 14 14 15
4 1 4 5 6 8 8 6 5 5 4 4 6 8 10 11 10 6 3 4 6 5 7 7 3 1 0 4 9 11 12 13 14 16 18 21 23 24 24 25 29 34 37 35 34 34 32 30 28 26 23 20 17 14 13 12 9 8 8 7 6 3 2 1 2 3 3 3 3 5 5 5 6 6 8 9 10 11 11 12 12 13 13 14 15 15
1 1 4 4 5 6 5 2 3 6 7 6 8 11 11 11 11 7 4 5 5 5 5 5 3 5 6 8 11 13 14 14 14 17 20 22 24 24 25 26 29 33 33 32 32 33 31 29 27 25 22 19 16 14 12 10 8 8 7 5 4 2 1 2 3 3 2 4 6 6 5 5 6 7 8 10 11 12 12 12 13 13 14 14 15 15
1 3 5 3 3 2 1 2 2 6 11 12 11 11 10 9 11 10 7 4 5 5 5 3 5 7 9 12 14 14 15 14 14 17 21 23 22 22 26 28 28 29 29 29 31 31 30 29 26 22 19 17 14 11 9 8 8 8 6 4 2 1 2 2 1 2 6 7 7 5 5 6 7 8 10 11 12 12 12 12 13 13 14 14 14 14
2 4 4 3 3 2 1 2 2 3 6 8 11 13 12 11 12 13 8 5 6 6 3 5 9 8 8 14 16 14 15 16 17 19 21 22 21 23 30 30 26 26 26 26 28 31 29 28 24 20 18 17 14 11 10 8 8 7 5 2 1 1 1 2 4 7 8 8 6 5 6 7 8 9 10 11 11 11 11 12 13 13 13 13 13 14
2 4 4 4 4 3 1 2 4 5 4 4 7 10 13 14 14 13 8 5 6 3 1 6 11 4 4 11 14 14 18 20 21 23 24 24 24 26 29 27 23 24 25 24 27 30 29 26 24 23 21 19 17 15 12 10 8 7 4 1 1 1 3 7 9 9 8 6 6 6 7 7 8 9 10 10 10 10 11 12 13 14 14 14 14 15
3 3 4 4 4 2 2 2 3 7 7 6 4 4 8 12 12 11 7 5 4 2 2 7 8 1 2 10 14 17 22 22 22 24 26 29 30 28 25 24 23 24 24 24 27 30 29 27 26 26 24 21 19 16 12 10 9 6 3 1 2 4 7 9 9 8 7 6 6 6 6 7 8 9 9 9 9 9 11 12 13 14 14 15 16 16
3 2 3 4 5 2 2 3 4 5 5 5 4 4 7 9 8 5 4 4 6 7 8 8 5 4 7 13 16 18 21 22 22 24 26 28 32 33 29 26 25 27 28 28 30 31 30 29 28 26 24 21 19 16 13 11 9 6 3 1 3 7 9 10 9 7 6 5 5 6 6 7 8 8 8 8 9 10 11 11 12 13 15 17 18 18
3 3 3 3 5 2 1 2 5 6 6 4 2 4 5 4 2 2 2 2 5 8 9 4 2 7 13 15 16 17 18 20 23 25 26 27 29 32 33 30 28 30 33 33 33 32 31 29 27 25 23 21 19 16 13 10 8 5 3 3 6 9 9 9 7 5 5 5 5 6 7 7 8 8 8 8 10 11 11 12 13 14 16 18 19 20
4 5 2 2 4 3 1 2 4 4 5 3 1 2 3 2 1 2 3 3 3 3 2 1 5 14 17 16 18 19 18 20 23 24 27 31 30 28 28 30 31 33 35 35 35 33 30 28 27 24 23 21 18 15 12 9 7 5 4 6 9 10 9 7 5 4 4 5 6 6 7 7 8 8 8 9 10 11 11 13 14 16 17 18 19 20
5 5 2 1 2 2 1 3 4 3 2 1 1 2 4 3 1 1 1 2 4 3 1 5 12 19 19 18 20 20 19 22 26 28 30 35 36 32 30 31 33 35 37 37 36 33 30 29 28 25 23 20 17 14 12 9 7 5 7 9 10 9 8 6 4 4 5 6 6 6 7 7 8 8 9 10 10 11 13 15 16 18 19 19 20 20
5 4 3 1 1 2 3 3 2 1 1 1 1 2 4 4 5 4 2 4 7 5 4 10 15 17 17 17 19 20 22 23 23 26 31 34 36 38 38 37 36 36 38 38 36 34 31 29 27 26 23 20 17 14 11 9 8 8 9 11 10 8 7 6 5 6 5 5 5 6 7 8 9 9 10 11 11 13 15 17 18 19 19 19 19 19
3 4 4 2 1 1 4 3 1 2 1 0 2 4 6 5 5 5 2 3 7 6 6 11 15 16 16 17 20 24 27 22 14 14 24 30 31 34 37 39 39 38 38 38 34 31 30 28 26 25 22 19 17 14 12 11 10 10 11 11 10 9 8 7 6 5 5 5 7 8 9 10 10 10 11 12 13 15 17 18 18 19 19 18 19 19
2 1 2 3 1 0 3 3 2 3 3 2 3 5 7 4 4 3 1 1 6 9 11 14 17 18 17 19 24 27 24 16 7 9 21 27 28 31 34 36 38 38 37 36 32 30 30 28 26 23 21 19 17 14 13 12 12 12 12 12 11 9 8 7 6 6 7 8 10 10 11 11 11 12 13 14 16 17 17 17 18 18 17 18 18 18
4 2 1 3 2 1 3 4 3 3 3 2 2 2 6 6 4 2 2 3 6 13 18 18 18 19 21 26 29 25 16 9 7 12 24 29 30 33 36 37 37 37 36 34 33 32 31 27 24 22 19 18 16 15 14 13 12 12 12 12 10 8 8 8 8 10 10 11 12 12 12 12 12 13 14 16 16 16 17 17 17 17 17 17 17 17
4 2 1 3 3 3 4 3 2 3 2 1 1 3 7 7 3 3 4 3 7 18 25 25 24 23 25 31 30 22 12 7 11 22 31 33 32 35 37 37 37 35 34 33 32 31 29 25 23 20 17 16 16 16 15 13 12 11 11 11 10 10 11 11 12 12 12 12 13 13 13 14 14 15 16 17 17 17 18 19 19 18 18 18 18 17
3 2 1 2 3 4 4 3 1 3 2 1 2 6 10 8 3 4 3 1 8 21 26 29 31 30 32 33 26 15 6 6 19 34 38 35 34 35 36 37 37 35 34 34 32 30 27 23 20 19 17 16 16 16 14 12 12 13 13 13 13 13 14 14 13 13 13 13 14 14 15 15 16 17 18 18 19 20 20 20 19 19 19 19 18 18
2 2 1 2 3 3 2 2 1 2 2 4 5 6 9 6 2 2 1 3 9 22 24 27 31 33 34 31 19 12 13 17 31 41 39 36 38 38 38 40 39 37 36 34 31 28 24 22 20 19 18 17 16 16 14 13 14 15 15 15 15 15 15 15 14 14 14 14 15 16 16 17 17 19 19 20 20 20 21 20 18 18 19 18 18 19
3 3 2 2 2 2 2 2 2 2 4 12 12 6 4 4 1 1 2 1 11 21 24 26 29 31 33 27 18 19 27 32 39 43 40 39 41 41 41 42 40 38 37 33 29 25 24 24 23 21 20 19 17 16 15 14 15 17 16 16 17 17 16 15 14 14 14 15 16 17 18 19 19 20 20 20 20 20 20 19 18 18 18 18 19 20
1 2 2 2 2 2 2 3 1 2 3 11 9 2 2 3 1 2 2 6 13 20 23 25 27 29 30 28 27 31 36 38 42 44 42 41 42 43 44 42 40 39 36 31 28 26 25 26 25 23 22 20 18 17 16 15 16 18 18 17 18 17 16 15 14 14 15 16 17 18 19 20 20 20 20 20 18 18 18 18 18 18 18 19 20 21
1 0 1 2 2 1 1 1 1 4 1 6 4 4 3 2 1 1 5 9 14 20 23 25 26 27 28 30 34 38 39 40 43 44 44 44 44 45 44 42 39 37 33 30 30 28 27 26 25 24 23 21 19 18 16 15 16 18 19 19 18 17 16 16 15 15 17 18 18 19 19 20 20 19 19 18 17 17 18 17 18 19 19 20 21 22
1 1 1 0 1 1 1 1 2 4 3 3 4 4 3 2 3 2 5 10 14 19 23 26 28 30 31 33 37 39 40 42 44 46 46 47 47 47 44 40 37 34 33 33 33 30 27 26 26 25 25 22 20 19 17 16 16 18 20 20 19 17 16 16 16 18 19 19 19 18 18 18 18 18 17 16 16 17 18 18 18 19 20 21 22 23
0 0 1 1 2 3 2 0 1 3 3 1 4 3 1 3 5 4 7 12 17 21 25 28 30 33 34 33 35 40 43 45 48 49 49 50 49 46 42 39 37 36 36 36 33 30 29 28 27 27 26 24 22 20 19 18 18 19 21 21 19 18 16 16 17 19 20 19 19 18 17 17 17 17 16 16 17 17 17 17 18 19 20 21 22 22
1 0 0 2 2 1 1 2 2 3 3 2 4 3 2 4 5 7 10 15 19 22 26 28 31 34 35 33 35 40 45 48 50 51 50 50 49 45 41 40 39 39 37 34 32 31 29 28 28 27 26 26 24 22 21 20 20 20 21 20 19 17 16 17 18 19 20 19 19 18 17 17 17 17 17 17 16 16 16 16 17 19 20 20 20 21
1 0 2 3 2 0 2 2 2 1 2 3 5 5 5 5 7 10 13 16 20 23 26 29 32 34 35 35 37 42 46 48 51 52 50 49 47 44 43 42 41 39 37 34 32 30 29 28 28 28 27 27 26 24 22 21 21 20 20 19 17 16 15 17 18 18 19 19 18 18 18 17 17 17 16 16 15 15 17 18 19 20 21 20 20 20
1 3 4 3 3 1 1 4 7 2 1 4 7 7 7 7 9 13 16 18 21 24 28 32 33 33 34 36 38 43 46 48 49 51 50 48 47 45 43 42 41 39 36 34 32 29 28 28 28 28 29 28 27 24 23 22 21 20 19 18 16 14 15 17 18 18 18 17 16 17 17 17 17 16 16 15 16 18 20 22 23 24 23 23 22 22
1 3 2 2 1 2 2 7 11 3 2 6 11 10 10 10 11 15 18 20 23 26 30 34 33 31 34 37 39 43 48 48 48 49 50 49 47 45 43 42 41 39 36 34 32 30 29 29 29 29 29 28 27 25 23 22 22 20 18 17 15 14 15 17 18 17 16 15 14 15 15 16 17 17 17 18 20 22 24 25 25 25 25 25 25 24
Wind_Direction
167 171 195 197 180 158 161 166 145 108 147 146 148 171 161 171 184 193 235 292 280 215 207 195 192 172 167 181 201 200 189 200 201 190 194 197 199 206 205 199 191 181 179 179 179 299 243 201 192 192 197 201 187 171 175 181 182 182 180 176 173 174 176 178 181 180 180 182 185 189 192 191 187 188 191 190 193 206 215 215 218 228 243 251 254 252
180 200 196 168 147 149 154 146 127 108 140 148 154 168 171 193 182 145 246 304 304 232 188 132 180 175 172 183 196 196 192 204 201 195 200 201 204 211 208 200 195 193 195 201 208 232 261 224 192 195 199 198 184 165 168 175 178 179 178 174 172 174 177 180 183 184 185 187 189 191 193 193 192 193 191 194 208 217 217 216 226 238 244 244 247 252
197 208 159 141 141 144 144 143 142 132 135 145 150 162 168 186 205 175 238 336 338 245 151 139 185 184 171 182 192 194 197 206 204 202 203 203 206 211 207 201 208 203 190 200 205 206 228 235 197 197 197 188 177 165 164 170 173 175 174 171 172 175 178 182 187 190 192 192 191 192 194 192 191 194 196 203 211 221 235 239 245 248 247 247 250 257
198 185 146 142 142 139 144 158 158 156 160 148 144 165 162 154 213 192 176 2 10 338 25 139 176 190 149 170 202 203 206 210 206 205 209 210 213 211 205 202 200 186 169 189 194 183 212 225 204 201 194 178 173 167 163 167 171 172 172 172 174 177 180 186 191 194 195 192 189 189 190 189 187 192 208 224 232 243 253 255 257 253 249 254 263 272
168 143 143 145 147 147 152 164 166 176 187 177 174 176 151 142 190 160 32 327 328 62 46 122 177 236 168 178 202 210 214 211 177 185 223 222 216 209 201 190 191 194 187 185 176 164 208 222 209 207 193 176 171 168 166 167 170 171 173 174 176 179 183 187 192 195 194 191 192 192 189 189 189 194 206 225 249 251 247 243 241 250 261 270 279 283
166 146 151 152 157 156 154 167 175 177 179 188 209 203 182 175 170 78 10 328 196 177 94 183 222 213 156 193 200 193 207 195 140 182 222 220 209 202 194 177 183 194 193 191 189 194 224 237 213 200 187 175 170 167 165 165 168 171 174 176 178 180 183 186 190 193 194 192 194 190 184 184 187 190 196 202 224 226 210 218 236 268 283 286 288 286
158 160 164 159 157 157 159 173 180 174 174 187 189 184 189 189 159 166 297 268 206 204 112 269 238 217 147 212 209 192 199 185 156 190 212 211 206 199 190 184 187 193 196 199 198 201 217 224 207 191 182 175 169 165 164 164 168 172 174 176 177 177 180 183 188 192 194 196 198 197 189 190 188 183 199 212 217 212 200 239 273 286 285 289 292 290
144 160 179 168 159 165 172 174 181 177 174 176 160 161 173 180 173 172 175 202 259 305 227 157 229 249 216 209 202 188 197 184 167 195 204 203 206 200 193 189 189 201 205 203 202 204 208 206 197 189 178 171 167 164 165 167 170 173 175 177 177 179 183 185 188 191 193 195 203 210 203 205 200 184 204 220 240 342 355 331 311 295 289 290 294 296
137 163 177 166 166 182 174 148 159 171 166 156 159 162 168 172 176 171 183 229 357 323 243 175 150 231 225 179 125 175 199 194 183 198 207 205 205 199 195 192 194 206 208 202 201 200 196 192 189 181 170 166 164 163 167 169 172 177 181 183 181 181 181 179 182 187 188 195 206 213 211 219 211 184 190 194 309 313 307 301 293 287 289 290 291 295
152 175 170 165 174 180 152 133 158 173 165 141 148 145 146 152 151 157 209 232 15 263 246 188 164 226 229 173 170 172 198 204 194 201 210 205 205 202 195 194 198 204 202 194 191 187 181 181 179 173 169 165 164 165 169 170 171 177 180 178 175 173 171 171 179 190 195 202 205 204 213 221 209 192 206 236 266 277 284 286 285 284 285 286 290 296
123 170 169 174 177 157 147 151 167 172 140 128 137 128 122 126 107 106 206 175 215 246 241 170 172 219 242 196 179 183 196 196 190 199 211 203 202 207 202 196 195 194 190 186 179 173 174 175 172 171 168 164 166 169 169 164 159 162 165 165 165 163 163 174 188 204 211 211 205 200 206 209 211 222 243 263 274 281 286 287 287 287 287 290 295 302
118 158 170 175 158 142 140 156 172 162 141 139 143 139 136 129 126 147 138 162 225 235 199 148 176 201 228 225 183 207 208 193 192 195 198 194 196 204 203 197 193 188 186 183 174 172 174 170 167 168 165 165 168 164 159 157 157 159 162 168 170 159 158 175 191 207 216 210 199 203 211 218 232 250 264 277 284 289 294 294 295 295 296 300 305 309
142 162 157 152 163 157 148 153 166 160 160 163 155 154 161 160 163 186 189 194 222 223 77 133 178 197 231 236 183 228 230 259 226 203 192 191 195 199 198 192 188 184 183 178 174 177 176 169 165 163 162 163 163 157 155 159 162 161 162 170 175 165 167 185 192 199 207 212 223 237 252 264 271 279 287 294 299 301 301 301 302 305 306 308 310 312
153 170 172 161 167 171 166 165 171 172 179 180 167 171 177 166 174 193 196 206 225 194 95 106 162 204 237 160 140 258 120 7 269 196 186 189 191 194 194 190 185 184 184 180 179 180 174 167 165 164 162 159 157 157 159 162 166 167 165 170 174 168 173 185 194 209 228 260 282 290 291 291 290 293 299 303 304 302 302 305 310 313 314 313 314 314
164 164 175 171 156 173 178 175 162 154 173 183 167 177 185 174 188 196 194 206 198 156 121 119 169 206 187 124 74 165 127 122 158 161 167 174 178 180 184 187 187 185 182 178 179 179 173 170 169 165 162 160 159 160 161 165 174 177 166 156 153 149 166 195 225 252 277 289 297 303 300 297 295 298 301 300 299 301 306 313 315 315 314 315 317 318
165 137 159 177 149 166 175 159 141 151 175 191 142 172 193 182 166 152 201 199 140 136 156 166 208 245 150 98 96 140 143 128 132 151 153 153 161 168 176 185 187 183 178 175 174 173 172 174 173 166 161 158 157 157 159 164 180 187 167 154 162 172 206 254 277 286 292 297 305 306 302 298 297 297 296 296 300 305 308 310 309 310 314 318 321 324
162 133 149 186 174 178 173 156 165 175 169 156 183 192 179 116 113 127 112 53 87 215 196 174 186 105 188 196 138 151 154 138 143 160 160 158 160 167 175 178 174 169 168 171 174 174 173 174 171 166 163 157 154 158 162 165 181 191 186 182 185 206 261 284 292 293 296 302 307 306 299 296 297 295 296 299 301 301 302 306 311 317 321 324 325 327
166 135 143 183 184 199 179 165 181 194 154 155 193 180 115 63 40 177 176 132 184 215 206 168 179 165 188 183 142 158 163 156 164 169 167 166 166 167 170 170 168 168 171 177 181 178 171 167 162 159 162 159 158 168 177 180 183 182 181 180 193 283 293 290 289 291 296 301 302 300 295 294 294 295 300 300 299 302 310 319 323 325 325 325 326 327
185 139 135 198 189 180 170 174 186 202 205 191 178 154 137 199 202 177 182 177 188 211 215 170 159 189 206 176 157 181 181 173 173 172 171 172 170 167 163 166 171 176 179 181 175 165 161 163 160 157 162 164 166 175 177 177 179 180 182 190 252 282 285 284 285 287 290 292 291 290 295 300 302 308 311 308 311 320 326 326 326 325 325 326 329 331
187 148 154 207 194 154 158 192 192 184 203 48 161 166 183 233 194 176 175 186 190 200 213 192 168 202 211 183 181 192 187 179 177 179 179 172 169 167 161 161 166 170 168 156 147 144 147 156 159 162 168 168 168 171 170 171 175 180 182 200 252 269 274 278 281 282 282 282 282 290 303 310 318 324 324 326 329 330 330 330 332 332 333 335 337 338
143 175 166 158 163 170 179 203 191 173 168 175 181 184 182 150 165 183 161 88 210 185 177 226 229 194 157 190 210 200 186 180 179 178 172 162 163 164 159 155 153 146 135 132 139 146 152 157 160 164 168 166 164 165 167 169 171 173 180 216 253 262 266 266 267 268 269 277 291 306 320 329 336 338 338 340 339 339 343 345 346 344 344 344 342 341
150 186 178 156 176 189 171 155 171 175 179 186 187 183 182 169 152 184 193 164 53 151 148 224 261 125 93 355 279 228 183 178 177 168 155 154 158 157 154 151 143 135 134 141 149 154 157 159 158 159 161 163 165 165 165 167 168 171 186 225 246 248 242 231 229 239 268 301 316 334 347 350 351 349 351 356 355 357 359 357 355 352 349 346 344 342
149 148 165 160 175 183 146 125 185 187 180 184 194 185 181 184 183 197 203 157 125 116 99 86 301 49 69 347 292 227 179 172 169 157 147 149 150 146 143 141 138 138 143 150 153 151 152 156 157 156 157 161 164 163 162 163 165 170 179 198 204 199 195 193 191 258 315 325 333 349 359 0 2 3 7 10 7 6 6 3 359 355 352 351 349 347
156 153 172 147 124 172 159 72 186 186 173 186 202 188 183 192 191 197 164 138 175 188 156 209 254 126 40 340 230 170 162 162 161 152 144 141 138 137 138 137 138 140 143 147 149 149 153 158 159 160 161 161 161 159 158 157 157 160 162 163 159 158 172 186 348 335 331 332 339 355 10 20 23 21 19 15 14 14 12 8 4 0 358 356 353 351
168 178 186 163 145 168 176 155 185 196 192 197 190 178 183 171 140 117 114 157 204 192 173 206 231 136 30 17 154 151 150 149 148 147 143 137 133 135 136 137 139 140 141 143 144 146 151 154 156 159 160 159 157 153 152 151 149 150 148 142 140 150 182 243 342 335 339 346 356 21 44 46 39 32 26 22 21 20 15 11 7 3 0 358 356 355
171 178 184 179 167 174 182 181 183 179 181 199 176 171 184 178 168 167 154 188 210 177 174 206 212 122 108 164 155 151 147 142 137 138 140 137 136 136 135 137 140 141 142 143 144 146 149 150 152 154 153 151 150 148 147 146 142 139 137 135 140 163 204 291 329 334 352 20 53 69 71 62 48 39 32 26 22 18 14 10 6 3 1 0 360 359
144 187 177 192 187 183 186 174 131 143 163 192 188 179 186 188 182 178 181 200 188 145 180 212 141 141 183 178 167 161 153 146 140 139 140 139 139 137 137 140 142 142 143 143 145 148 150 150 150 148 143 142 143 142 141 139 136 136 138 143 161 190 256 313 327 348 50 89 96 91 81 64 48 38 30 24 19 14 9 7 5 5 4 3 2 1
116 201 185 191 200 190 157 112 115 176 185 187 182 179 186 187 185 196 206 174 136 152 197 188 142 167 187 182 179 171 158 150 144 143 142 140 139 137 139 142 142 142 143 144 146 149 150 150 147 139 135 138 139 141 140 139 142 142 142 158 183 239 309 330 7 85 103 106 105 94 74 57 42 31 26 22 18 12 10 11 11 11 9 7 7 7
149 195 190 181 175 138 131 183 187 203 194 182 178 178 180 184 193 204 202 159 166 198 204 162 172 189 189 183 183 172 159 152 143 141 140 137 137 139 141 143 142 142 144 144 148 153 153 151 146 140 143 148 151 154 151 148 151 147 143 161 199 333 19 105 104 109 111 108 102 83 62 49 34 27 25 23 21 19 20 22 22 19 16 14 15 16
195 193 176 170 164 115 33 244 192 182 176 174 187 186 180 185 197 202 192 163 181 215 23 162 175 189 195 182 174 156 149 145 140 140 139 139 142 144 144 145 144 146 148 147 152 157 155 152 152 154 156 158 158 157 151 150 153 148 143 150 24 54 110 117 115 115 115 110 96 75 56 42 33 30 30 30 31 33 33 32 31 27 24 22 24 24
217 202 151 160 179 143 27 14 169 184 178 166 184 202 185 187 196 198 182 153 151 96 73 153 156 151 191 160 148 142 142 142 144 147 147 148 150 148 146 148 149 149 150 150 154 158 156 156 160 160 158 158 158 155 150 151 150 145 142 98 70 107 119 120 120 121 119 108 87 68 53 44 40 37 38 39 40 40 39 37 34 31 30 29 30 29
196 189 119 161 191 182 29 59 122 143 143 147 174 190 185 187 190 185 163 168 169 142 131 142 152 187 171 145 139 143 145 147 153 154 153 154 156 154 152 151 152 154 155 155 158 161 162 163 163 162 159 159 158 155 150 148 148 145 141 99 106 122 124 122 123 123 115 99 79 68 59 51 47 44 43 44 43 41 39 35 33 32 32 32 31 29
174 157 130 176 186 170 7 71 114 128 139 156 190 186 188 194 168 132 121 185 181 148 143 157 171 157 152 144 146 151 154 158 161 161 160 158 157 157 156 154 155 157 158 160 163 166 165 164 164 163 161 159 156 152 146 145 149 147 136 122 125 129 128 126 126 120 107 94 82 73 64 53 46 44 44 44 42 39 36 33 32 32 32 32 30 28
164 152 142 182 173 170 195 105 115 161 177 166 88 176 199 226 186 160 166 183 196 172 150 70 121 143 152 158 160 161 162 161 160 162 162 160 159 157 155 155 157 159 160 163 166 167 165 165 165 162 159 156 154 150 147 148 150 143 137 134 133 133 132 130 128 115 100 95 85 72 58 45 40 41 43 44 41 36 34 33 33 34 35 34 32 31
160 143 123 132 149 163 155 113 135 188 199 101 331 213 195 206 207 143 129 189 203 216 173 134 146 156 163 165 161 158 155 155 159 162 164 164 163 161 158 159 161 162 163 165 167 167 167 166 163 159 156 154 152 150 152 152 146 142 142 138 136 140 139 137 133 118 105 94 79 62 48 42 41 44 46 45 42 40 40 40 40 40 40 38 36 35
164 144 119 76 74 148 145 133 158 221 23 52 301 210 161 175 189 176 193 211 200 203 181 157 156 160 159 150 145 146 147 148 152 160 166 168 169 168 167 167 167 166 166 168 168 167 166 165 161 157 154 152 150 150 151 149 144 144 143 139 142 145 140 134 129 118 103 83 66 57 55 55 53 54 54 52 51 51 50 49 48 47 45 42 40 38
166 153 130 102 13 152 144 144 227 298 301 189 257 206 176 174 186 183 205 200 185 191 180 157 153 153 145 133 131 136 138 135 130 153 169 170 170 171 171 170 169 169 168 167 166 163 162 161 158 156 152 148 147 147 147 144 142 143 140 139 142 139 131 128 123 109 92 78 75 73 72 71 66 64 64 62 59 58 57 55 53 50 47 44 40 38
132 192 153 144 200 316 128 147 207 255 236 226 236 205 185 181 186 188 281 190 176 181 176 162 153 148 139 133 135 134 133 134 137 167 173 171 170 170 169 168 168 168 166 164 161 159 158 157 155 154 151 146 143 141 142 141 140 141 138 133 134 132 128 127 116 101 95 91 88 84 80 77 73 70 69 66 63 61 59 57 54 51 47 44 40 37
91 39 56 128 151 166 151 159 183 221 236 242 259 207 180 175 175 177 219 214 175 171 171 165 156 150 146 145 144 142 141 154 176 179 175 172 170 170 169 166 165 165 163 161 159 157 156 155 154 151 148 147 144 141 141 140 140 141 134 129 132 136 131 125 112 103 99 95 91 88 84 81 77 74 71 67 64 62 60 58 56 53 50 48 44 43
86 69 112 142 143 158 159 151 186 239 247 222 245 202 175 171 168 174 193 200 165 168 170 166 160 159 156 152 152 157 168 177 174 173 173 170 169 172 172 167 164 162 160 158 157 155 154 155 154 150 150 150 146 141 140 140 139 137 131 131 139 138 127 118 109 103 99 95 93 90 87 84 80 77 73 68 66 66 65 63 61 59 58 56 53 52
65 59 121 167 145 151 163 154 201 247 237 166 193 177 163 165 185 178 174 25 161 170 172 168 165 165 163 162 163 166 166 158 159 162 165 167 167 168 168 165 163 162 159 158 158 156 155 156 155 153 152 148 142 138 137 137 136 134 133 138 139 130 120 113 107 103 100 98 95 92 89 86 82 79 76 73 72 73 71 69 67 66 65 63 61 59
140 109 101 164 144 135 153 148 177 261 207 147 144 150 159 171 192 168 336 335 174 172 172 170 168 166 166 169 168 140 123 139 152 155 159 164 164 161 161 161 160 159 158 157 157 157 157 157 156 152 146 140 137 136 137 140 140 137 138 139 133 122 115 111 107 105 103 101 99 96 92 89 85 83 81 80 79 78 78 76 74 72 70 68 65 63
171 158 155 175 156 104 97 137 163 261 176 153 141 133 175 193 39 30 319 257 173 172 171 169 169 167 166 166 154 133 134 142 149 153 156 159 159 159 160 161 159 157 157 157 158 161 161 156 152 146 140 138 138 139 143 148 145 141 141 136 125 117 115 112 110 110 109 106 103 98 95 92 89 87 86 85 84 84 84 83 79 75 73 71 70 69
176 168 174 192 190 160 139 157 168 337 174 166 155 104 222 209 2 23 123 144 161 170 169 166 167 168 167 160 145 139 142 144 147 151 153 154 156 158 160 160 159 158 159 160 161 162 159 153 147 142 140 140 141 144 152 156 149 143 140 130 121 118 117 115 115 115 112 108 104 100 98 95 94 93 92 91 90 89 88 85 82 78 76 74 74 74
9 326 214 202 190 183 181 201 278 333 290 196 212 342 345 220 248 72 137 146 159 167 167 164 163 165 166 157 145 141 144 146 148 151 152 153 156 160 161 161 161 160 161 161 160 159 156 150 145 142 142 143 146 149 155 158 152 143 134 126 123 124 121 120 121 118 113 109 105 102 101 100 100 99 98 96 94 91 90 87 83 80 78 77 76 75
359 328 259 226 135 176 222 256 274 305 316 226 237 305 342 160 164 144 148 154 158 163 164 163 162 162 161 156 148 145 148 150 151 152 154 155 158 161 161 161 161 161 160 159 158 156 154 148 145 145 144 146 149 151 151 153 149 139 131 128 128 128 125 126 124 117 112 109 107 106 107 106 106 105 101 99 95 93 90 87 83 82 80 78 77 74
254 80 9 69 133 166 185 227 272 286 318 260 228 268 314 162 163 161 164 163 161 163 164 162 162 162 160 157 154 151 152 155 155 155 157 159 161 161 161 161 160 160 159 158 157 156 154 150 148 147 146 147 150 150 147 145 140 133 131 132 132 130 130 128 122 115 112 110 109 110 111 109 109 108 104 101 98 94 90 86 84 84 83 81 78 75
144 77 84 123 132 195 289 317 306 303 313 248 211 209 202 185 173 167 170 168 165 166 167 165 164 162 159 160 161 157 156 158 158 158 160 162 162 162 162 161 160 160 159 158 157 156 154 152 149 148 148 148 149 147 144 140 135 133 134 134 133 133 131 126 120 115 113 112 112 112 111 110 110 109 107 104 100 95 91 88 87 86 84 82 79 76
317 204 154 132 115 309 286 260 232 300 302 238 214 196 183 181 172 166 169 169 167 167 165 164 165 165 164 164 165 162 159 159 161 162 164 163 162 162 162 160 160 160 159 157 157 158 156 153 150 149 149 149 147 145 142 138 135 135 137 136 135 135 130 124 120 116 113 113 112 112 111 112 113 112 109 107 102 97 94 92 90 87 84 81 78 75
295 155 150 136 138 181 256 187 178 179 323 195 189 180 169 170 172 168 165 167 169 168 165 162 161 164 167 168 167 165 161 161 163 166 166 165 163 162 161 160 160 160 158 157 158 159 157 154 152 151 150 148 147 144 141 138 137 138 138 137 137 136 131 126 122 118 115 113 112 112 113 114 114 112 109 106 103 101 99 95 92 89 85 82 79 76
272 180 177 155 170 317 333 171 177 199 19 144 161 160 157 163 174 172 166 167 169 169 168 166 161 160 164 167 169 169 165 164 167 167 165 164 163 161 160 160 159 158 158 158 158 158 156 155 154 152 150 149 147 145 142 139 138 137 136 135 136 137 133 130 125 120 117 116 117 119 118 116 115 113 109 106 106 105 102 98 93 89 85 83 80 78